Date String (YYYY-MM-DD hh:mm:ss) UTC,Instrument flags,Ambient pressure (hPa),Sample flow (lpm),Bypass flow (lpm),Sample temperature (°C),Ambient temperature (°C),ASC tube jacket temperature (°C),LED temperature (°C),Box temperature (°C),Sample RH (%),Span deviation,Mass concentration (μg/m³),Mass concentration (μg/m³),Mass concentration (μg/m³)
DateTimeUTC,F1_M11,P_M11,Q1_M11,Q2_M11,T1_M11,T2_M11,T3_M11,T4_M11,T5_M11,U1_M11,ZSPAN_M11,X0_M11,X2_M11,X1_M11
2021-12-04 06:00:00,,0829.1,5.00,0.00,26.3,25.4,00.0,35.4,28.0,13.8,0000.0,0014.94,0003.78,0002.32
2021-12-04 06:01:00,,0829.1,5.01,0.00,26.3,25.4,00.0,35.4,27.9,13.7,0000.0,0013.75,0003.78,0002.35
2021-12-04 06:02:00,,0829.1,5.01,0.00,26.3,25.4,00.0,35.4,27.9,13.7,0000.0,0013.40,0003.80,0002.38
2021-12-04 06:03:00,,0829.3,5.00,0.00,26.3,25.3,00.0,35.4,27.9,13.8,0000.0,0013.68,0003.84,0002.39
2021-12-04 06:04:00,,0829.2,4.99,0.00,26.2,25.4,00.0,35.4,27.9,13.8,0000.0,0014.03,0003.85,0002.38
2021-12-04 06:05:00,,0829.2,5.02,0.00,26.2,25.4,00.0,35.4,27.9,13.8,0000.0,0013.79,0003.81,0002.36
2021-12-04 06:06:00,,0829.2,4.98,0.00,26.2,25.3,00.0,35.3,27.9,13.8,0000.0,0013.03,0003.79,0002.34
2021-12-04 06:07:00,,0829.2,5.00,0.00,26.2,25.3,00.0,35.3,27.9,13.8,0000.0,0012.49,0003.71,0002.30
2021-12-04 06:08:00,,0829.2,5.00,0.00,26.2,25.3,00.0,35.3,27.9,13.8,0000.0,0012.17,0003.67,0002.27
2021-12-04 06:09:00,,0829.3,5.01,0.00,26.2,25.4,00.0,35.3,27.9,13.8,0000.0,0012.06,0003.64,0002.26
2021-12-04 06:10:00,,0829.3,5.01,0.00,26.2,25.3,00.0,35.3,27.9,13.8,0000.0,0009.49,0003.57,0002.26
2021-12-04 06:11:00,,0829.2,4.99,0.00,26.2,25.3,00.0,35.3,27.9,13.7,0000.0,0009.20,0003.58,0002.29
2021-12-04 06:12:00,,0829.2,5.01,0.00,26.2,25.3,00.0,35.3,27.8,13.7,0000.0,0009.42,0003.63,0002.28
2021-12-04 06:13:00,,0829.2,5.01,0.00,26.2,25.2,00.0,35.3,27.8,13.8,0000.0,0009.49,0003.69,0002.29
2021-12-04 06:14:00,,0829.1,4.99,0.00,26.1,25.2,00.0,35.3,27.8,13.8,0000.0,0009.10,0003.66,0002.31
2021-12-04 06:15:00,,0829.1,5.00,0.00,26.1,25.1,00.0,35.2,27.8,13.8,0000.0,0008.61,0003.60,0002.29
2021-12-04 06:16:00,,0829.1,5.01,0.00,26.1,25.1,00.0,35.2,27.7,13.8,0000.0,0008.51,0003.62,0002.30
2021-12-04 06:17:00,,0829.1,4.99,0.00,26.1,25.1,00.0,35.2,27.7,13.8,0000.0,0008.69,0003.66,0002.32
2021-12-04 06:18:00,,0829.1,5.01,0.00,26.1,25.1,00.0,35.2,27.8,13.7,0000.0,0008.80,0003.68,0002.35
2021-12-04 06:19:00,,0829.1,4.99,0.00,26.1,25.2,00.0,35.2,27.7,13.7,0000.0,0009.23,0003.71,0002.38
2021-12-04 06:20:00,,0829.1,5.00,0.00,26.0,25.2,00.0,35.2,27.7,13.7,0000.0,0009.88,0003.74,0002.41
2021-12-04 06:21:00,,0829.0,5.01,0.00,26.0,25.1,00.0,35.2,27.7,13.7,0000.0,0010.00,0003.76,0002.40
2021-12-04 06:22:00,,0829.0,4.99,0.00,26.0,25.2,00.0,35.2,27.7,13.7,0000.0,0009.83,0003.71,0002.35
2021-12-04 06:23:00,,0829.1,5.00,0.00,26.0,25.2,00.0,35.2,27.7,13.8,0000.0,0009.60,0003.62,0002.32
2021-12-04 06:24:00,,0829.1,5.01,0.00,26.0,25.1,00.0,35.1,27.6,13.8,0000.0,0009.69,0003.58,0002.31
2021-12-04 06:25:00,,0829.0,4.98,0.00,26.0,25.1,00.0,35.1,27.7,13.8,0000.0,0009.83,0003.57,0002.28
2021-12-04 06:26:00,,0829.1,5.00,0.00,26.0,25.1,00.0,35.1,27.7,13.8,0000.0,0009.91,0003.60,0002.29
2021-12-04 06:27:00,,0829.0,5.01,0.00,26.0,25.1,00.0,35.1,27.6,13.8,0000.0,0010.65,0003.56,0002.28
2021-12-04 06:28:00,,0829.0,4.99,0.00,26.0,25.1,00.0,35.1,27.6,13.9,0000.0,0011.61,0003.52,0002.29
2021-12-04 06:29:00,,0829.1,5.00,0.00,26.0,25.1,00.0,35.1,27.7,13.9,0000.0,0011.15,0003.51,0002.28
2021-12-04 06:30:00,,0829.0,5.00,0.00,25.9,25.1,00.0,35.1,27.6,14.0,0000.0,0010.60,0003.47,0002.26
2021-12-04 06:31:00,,0829.0,5.00,0.00,25.9,25.0,00.0,35.1,27.6,14.1,0000.0,0009.77,0003.45,0002.24
2021-12-04 06:32:00,,0829.1,5.00,0.00,25.9,25.0,00.0,35.1,27.5,14.1,0000.0,0009.64,0003.45,0002.24
2021-12-04 06:33:00,,0829.0,5.01,0.00,25.9,25.0,00.0,35.0,27.5,14.2,0000.0,0009.62,0003.46,0002.26
2021-12-04 06:34:00,,0829.0,5.00,0.00,25.9,25.0,00.0,35.0,27.6,14.2,0000.0,0009.62,0003.48,0002.26
2021-12-04 06:35:00,,0829.0,5.00,0.00,25.9,25.0,00.0,35.0,27.6,14.2,0000.0,0009.86,0003.51,0002.25
2021-12-04 06:36:00,,0829.0,5.01,0.00,25.9,25.0,00.0,35.0,27.6,14.2,0000.0,0010.65,0003.51,0002.24
2021-12-04 06:37:00,,0829.1,4.99,0.00,25.9,25.0,00.0,35.0,27.6,14.2,0000.0,0010.90,0003.53,0002.24
2021-12-04 06:38:00,,0829.0,5.01,0.00,25.8,25.0,00.0,35.0,27.6,14.3,0000.0,0011.14,0003.55,0002.24
2021-12-04 06:39:00,,0829.1,5.00,0.00,25.8,24.9,00.0,35.0,27.6,14.2,0000.0,0009.57,0003.51,0002.23
2021-12-04 06:40:00,,0829.1,4.98,0.00,25.8,24.9,00.0,35.0,27.5,14.2,0000.0,0009.84,0003.53,0002.21
2021-12-04 06:41:00,,0829.1,5.02,0.00,25.8,24.9,00.0,35.0,27.5,14.2,0000.0,0010.77,0003.59,0002.19
2021-12-04 06:42:00,,0829.1,4.99,0.00,25.8,24.9,00.0,34.9,27.5,14.3,0000.0,0010.91,0003.59,0002.16
2021-12-04 06:43:00,,0829.0,4.99,0.00,25.8,24.9,00.0,34.9,27.5,14.3,0000.0,0010.94,0003.59,0002.15
2021-12-04 06:44:00,,0829.0,5.02,0.00,25.8,24.9,00.0,34.9,27.5,14.4,0000.0,0011.13,0003.62,0002.13
2021-12-04 06:45:00,,0829.0,5.00,0.00,25.8,24.9,00.0,34.9,27.5,14.5,0000.0,0011.25,0003.66,0002.15
2021-12-04 06:46:00,,0829.0,5.00,0.00,25.8,24.9,00.0,34.9,27.4,14.5,0000.0,0011.61,0003.60,0002.14
2021-12-04 06:47:00,,0828.9,5.01,0.00,25.8,24.9,00.0,34.9,27.4,14.6,0000.0,0011.38,0003.57,0002.13
2021-12-04 06:48:00,,0828.9,5.00,0.00,25.7,24.9,00.0,34.9,27.4,14.6,0000.0,0011.51,0003.57,0002.12
2021-12-04 06:49:00,,0828.8,4.99,0.00,25.7,24.9,00.0,34.9,27.4,14.6,0000.0,0011.77,0003.60,0002.11
2021-12-04 06:50:00,,0829.0,5.00,0.00,25.7,24.8,00.0,34.9,27.4,14.6,0000.0,0011.92,0003.61,0002.09
2021-12-04 06:51:00,,0828.9,4.98,0.00,25.7,24.9,00.0,34.9,27.5,14.7,0000.0,0011.83,0003.60,0002.08
2021-12-04 06:52:00,,0828.9,5.01,0.00,25.7,24.8,00.0,34.9,27.5,14.6,0000.0,0010.90,0003.58,0002.11
2021-12-04 06:53:00,,0828.9,4.99,0.00,25.7,24.8,00.0,34.8,27.4,14.7,0000.0,0011.06,0003.60,0002.19
2021-12-04 06:54:00,,0828.9,5.01,0.00,25.7,24.8,00.0,34.8,27.4,14.7,0000.0,0010.92,0003.60,0002.24
2021-12-04 06:55:00,,0828.8,4.99,0.00,25.7,24.8,00.0,34.8,27.4,14.7,0000.0,0010.76,0003.58,0002.27
2021-12-04 06:56:00,,0828.8,5.01,0.00,25.7,24.8,00.0,34.8,27.4,14.8,0000.0,0010.68,0003.57,0002.28
2021-12-04 06:57:00,,0829.0,4.99,0.00,25.7,24.7,00.0,34.8,27.3,14.8,0000.0,0010.46,0003.62,0002.31
2021-12-04 06:58:00,,0829.0,5.00,0.00,25.6,24.7,00.0,34.8,27.3,14.8,0000.0,0009.73,0003.69,0002.34
2021-12-04 06:59:00,,0828.9,4.99,0.00,25.6,24.7,00.0,34.8,27.3,14.8,0000.0,0010.04,0003.75,0002.36
